Wind_Speed
7 7 6 6 7 7 8 8 8 7 7 8 8 8 8 8 7 7 7 7 7 8 8 8 7 7 7 7 7 7 7 8 8 8 8 8 8 8 8 8 9 9 9
7 7 7 7 7 7 8 8 8 8 8 8 9 9 9 8 7 7 7 7 8 7 7 7 7 7 7 8 8 7 7 8 8 8 7 7 7 8 8 9 9 9 9
7 7 7 7 8 8 8 9 9 9 9 9 10 10 9 9 8 8 8 8 8 7 7 8 8 7 7 7 7 7 7 7 7 7 7 8 8 8 8 9 9 9 9
8 8 8 9 9 9 9 9 9 9 10 10 9 9 9 8 9 9 8 8 8 8 8 8 8 8 8 7 7 7 7 8 8 8 8 8 8 9 9 9 9 9 9
9 9 9 9 10 10 10 10 10 10 10 9 10 10 10 10 9 9 9 9 9 9 9 9 8 8 9 9 8 8 8 8 9 9 9 9 9 9 9 10 10 9 9
9 10 10 11 10 10 11 10 10 11 10 10 10 11 11 10 10 10 10 10 10 10 10 10 9 9 9 9 9 9 9 10 10 10 10 10 10 10 10 9 9 10 10
9 10 11 11 12 11 11 10 11 11 11 12 12 11 11 12 11 11 11 11 10 10 11 11 10 10 10 10 10 10 10 11 11 11 10 11 10 10 10 10 10 10 10
10 11 12 12 12 12 11 11 12 12 12 13 13 13 13 13 13 12 12 12 11 12 12 12 12 12 11 11 12 11 11 12 12 12 11 11 11 11 11 11 11 11 11
11 12 12 12 12 12 12 12 13 13 13 14 13 13 13 14 14 13 13 13 13 13 13 13 13 12 13 13 13 13 12 12 13 13 13 13 12 12 12 12 12 12 12
13 13 13 13 13 13 14 14 14 14 15 15 14 14 14 14 14 14 14 14 14 15 15 14 14 13 13 13 13 14 13 13 13 13 13 13 12 12 13 13 12 12 11
14 14 14 14 14 15 15 15 15 15 15 15 15 14 14 15 15 15 15 15 15 15 16 16 15 15 15 14 14 14 14 14 14 14 14 14 13 13 13 13 12 12 12
14 14 14 15 15 16 16 16 16 16 16 16 16 16 15 15 16 16 16 16 16 16 16 16 16 16 16 16 16 15 14 15 15 15 15 15 14 14 14 13 13 13 14
15 15 16 16 16 16 17 17 17 18 18 18 17 16 16 17 17 17 17 17 17 16 17 17 17 17 18 18 17 17 16 15 16 16 15 15 15 15 14 14 14 14 15
16 17 17 17 17 17 18 18 18 18 19 19 18 18 17 18 18 18 18 18 18 18 18 18 18 18 18 18 18 18 17 17 16 16 16 16 16 16 15 15 15 16 16
18 18 18 18 19 19 19 19 19 19 19 19 19 19 19 18 18 18 18 18 18 18 18 18 19 19 19 19 19 19 18 18 17 17 17 17 17 17 17 17 17 17 17
20 20 20 20 20 20 20 20 20 20 20 20 20 20 20 20 20 19 19 19 19 19 18 18 19 19 19 19 19 20 20 20 19 19 18 19 18 18 18 18 19 18 18
22 23 23 22 22 22 22 21 21 21 21 21 21 22 22 22 22 21 21 20 20 20 19 18 18 18 18 18 19 19 19 19 19 19 19 19 19 19 19 20 20 20 20
24 24 24 24 24 23 23 23 22 22 23 23 23 23 23 23 23 22 22 21 21 20 20 20 19 19 19 19 20 20 19 19 19 19 19 19 20 20 20 20 20 20 20
26 25 25 25 25 25 24 25 24 24 24 24 23 24 23 23 23 22 22 21 21 21 20 21 20 20 20 20 19 19 19 19 19 19 19 20 20 20 20 20 20 20 20
27 27 26 26 26 26 25 25 26 25 25 24 24 24 24 23 23 23 22 22 22 21 21 21 21 21 21 21 20 20 20 20 20 19 19 20 21 21 21 21 21 21 22
28 28 28 27 27 27 27 26 26 27 26 25 24 24 24 24 23 23 23 23 22 22 22 22 21 21 21 21 21 21 21 21 21 21 21 21 21 22 22 22 22 22 23
29 29 29 29 29 29 29 28 28 28 28 26 25 25 26 25 24 24 24 24 24 24 23 23 22 22 22 22 21 21 21 21 21 21 21 22 22 22 22 22 22 22 22
30 30 29 29 29 30 30 30 30 29 28 27 26 26 27 26 25 25 25 25 25 24 24 23 23 23 22 22 22 22 22 22 22 22 22 23 23 23 23 23 23 23 23
31 31 30 30 30 30 31 31 30 29 28 28 27 26 27 26 26 25 25 24 25 25 25 24 24 24 23 23 23 23 24 24 24 24 24 24 24 24 24 25 25 25 25
32 31 30 31 31 31 31 30 30 29 29 28 27 27 27 27 27 26 26 25 25 25 25 25 25 25 25 25 25 25 25 25 25 26 26 26 25 25 26 26 27 27 27
32 31 30 30 30 30 30 30 30 29 29 29 28 27 27 27 27 27 27 26 26 26 26 26 27 27 27 27 27 27 27 27 26 26 26 26 27 27 27 27 28 28 29
Wind_Direction
269 272 276 274 272 275 279 280 281 281 283 284 282 284 287 287 283 285 292 297 291 286 283 284 284 288 295 294 297 288 273 268 267 268 268 271 270 271 274 275 274 274 275
271 273 276 273 272 276 279 280 279 279 279 282 284 285 284 283 286 289 288 289 292 291 287 286 290 288 289 291 292 284 281 278 273 271 269 270 271 273 275 276 274 273 274
270 274 274 274 278 281 282 282 279 276 277 280 286 286 283 282 281 282 281 282 282 283 285 287 289 288 288 289 288 286 282 284 280 275 275 274 271 272 274 274 273 275 276
269 273 276 275 278 279 279 279 276 275 274 276 279 278 279 281 276 276 278 277 279 283 285 284 285 283 284 285 286 283 284 283 282 279 275 275 274 272 271 273 273 275 277
272 276 280 280 280 280 280 279 275 272 272 272 272 274 276 280 277 275 278 277 277 280 283 284 284 282 279 281 278 276 280 284 284 282 279 276 274 272 271 272 275 276 277
275 278 281 283 282 282 281 278 275 272 271 272 273 273 275 278 277 276 278 278 277 277 281 279 282 283 282 278 272 273 276 280 282 281 279 276 274 271 271 272 273 273 275
275 276 279 281 279 279 278 276 274 273 271 270 271 272 272 276 276 275 274 276 276 276 277 275 276 280 281 278 275 276 277 276 278 279 280 277 273 271 271 271 272 273 273
277 277 277 278 278 276 275 276 276 275 271 269 270 273 273 273 273 271 271 273 274 274 272 272 274 275 277 277 276 276 277 274 275 276 276 275 271 271 269 268 269 271 272
279 278 276 276 276 276 276 275 276 275 269 266 267 270 271 271 270 268 269 271 272 272 271 271 272 273 276 278 278 278 278 275 275 274 273 273 273 274 272 270 268 269 272
280 280 276 276 276 276 276 275 275 275 273 268 266 269 271 269 269 268 269 271 269 269 270 270 271 273 276 279 281 281 279 276 275 273 274 274 274 273 271 271 270 269 270
280 281 278 278 278 277 276 274 273 274 276 273 268 269 269 267 267 268 270 269 269 270 269 268 270 273 276 278 279 279 278 276 276 276 274 273 273 271 270 268 268 269 269
280 282 283 282 279 278 275 275 274 273 276 275 271 269 267 267 267 267 270 270 270 270 269 266 267 271 274 276 277 277 277 276 276 276 274 273 273 271 270 268 267 268 270
279 280 280 279 278 277 275 273 274 275 275 273 270 269 268 269 269 269 269 269 270 271 272 271 270 271 273 274 275 275 274 274 274 274 273 273 273 271 269 268 268 269 270
280 277 276 276 278 278 276 275 274 274 275 272 269 269 268 269 269 269 270 271 270 273 274 272 270 270 272 273 273 273 272 272 273 272 271 272 271 269 269 269 270 270 270
280 277 277 277 277 277 276 275 276 276 274 271 269 269 268 267 267 270 272 272 272 272 271 271 269 270 272 273 273 272 270 270 271 271 270 271 269 268 268 270 270 271 271
283 282 280 279 277 275 275 275 276 277 274 270 268 268 267 266 266 267 270 272 272 271 271 270 270 272 274 275 275 274 271 269 270 271 271 271 269 267 267 268 269 270 271
283 283 282 280 278 276 275 275 276 277 275 271 268 267 268 267 266 266 267 270 270 270 271 272 271 271 274 276 277 278 276 273 272 273 273 272 270 268 268 268 269 270 271
281 281 281 279 279 278 276 275 274 274 272 270 267 267 267 267 268 266 267 269 271 271 270 270 270 272 272 273 275 276 275 274 273 273 273 272 271 271 271 271 271 270 270
279 279 280 279 278 278 276 274 273 272 270 269 268 269 267 266 266 266 266 266 268 269 269 269 270 271 271 271 272 274 274 273 272 272 272 272 271 271 271 272 271 269 270
278 278 278 279 279 278 276 274 273 272 270 268 268 268 265 264 263 264 265 265 265 267 266 266 268 270 271 271 272 273 271 271 271 272 273 273 272 272 273 272 270 269 271
277 278 278 278 278 277 276 275 274 273 271 270 267 266 264 263 262 262 262 262 264 264 263 265 266 268 269 270 271 270 270 271 271 273 273 273 273 274 273 272 271 271 271
275 276 277 278 277 277 275 275 275 274 271 268 266 264 263 263 262 261 261 261 262 263 262 264 266 267 269 269 269 269 271 272 272 273 273 274 274 274 275 274 273 274 273
274 275 275 276 276 275 274 274 273 272 270 268 265 263 262 262 262 261 261 261 261 261 262 265 267 267 268 267 267 267 269 271 272 273 275 275 276 274 274 274 274 275 274
275 274 275 276 275 274 273 273 271 268 268 267 264 262 261 260 260 260 261 261 260 260 262 264 266 266 267 267 267 267 269 270 271 273 274 275 276 276 274 273 274 275 275
275 274 273 274 275 274 272 270 267 266 267 266 265 262 262 260 259 259 259 260 260 261 262 263 264 264 266 267 267 267 268 270 271 273 274 274 275 275 275 274 275 275 275
273 273 273 272 273 272 269 267 265 265 266 267 265 262 260 259 259 258 259 260 260 261 263 265 266 264 264 266 266 267 269 270 271 273 273 274 275 276 276 275 275 276 276
Height
5864 5864 5864 5865 5864 5864 5864 5864 5864 5864 5863 5863 5862 5862 5861 5861 5860 5859 5858 5858 5857 5857 5856 5855 5855 5854 5854 5853 5852 5852 5852 5852 5852 5852 5851 5851 5851 5851 5850 5850 5850 5849 5849
5863 5862 5862 5862 5862 5862 5862 5862 5862 5861 5861 5861 5860 5860 5859 5858 5858 5857 5856 5856 5855 5855 5854 5853 5853 5853 5852 5851 5851 5851 5850 5850 5850 5850 5849 5849 5850 5849 5848 5848 5848 5847 5847
5861 5861 5861 5860 5860 5860 5860 5859 5859 5859 5858 5858 5858 5857 5857 5856 5856 5855 5854 5854 5853 5853 5852 5852 5851 5851 5850 5850 5849 5849 5848 5848 5848 5848 5848 5847 5847 5847 5846 5846 5846 5845 5844
5859 5858 5858 5858 5858 5857 5857 5857 5856 5856 5856 5856 5855 5855 5854 5854 5853 5853 5852 5852 5851 5851 5850 5850 5849 5849 5848 5848 5848 5847 5847 5846 5846 5845 5845 5845 5845 5845 5844 5844 5843 5843 5842
5856 5856 5856 5855 5855 5855 5854 5854 5854 5853 5853 5853 5853 5852 5852 5852 5851 5850 5850 5850 5849 5849 5848 5848 5847 5847 5846 5846 5846 5845 5845 5844 5844 5843 5843 5842 5842 5842 5841 5841 5841 5840 5840
5853 5853 5853 5852 5852 5852 5851 5851 5851 5850 5850 5850 5850 5850 5849 5849 5848 5848 5847 5847 5847 5846 5846 5846 5845 5845 5844 5844 5843 5843 5842 5842 5841 5841 5840 5840 5839 5839 5839 5838 5838 5837 5837
5851 5850 5850 5849 5849 5848 5848 5848 5847 5847 5847 5847 5847 5846 5846 5846 5845 5845 5845 5844 5844 5844 5843 5843 5842 5842 5841 5841 5841 5840 5839 5839 5838 5838 5837 5837 5836 5836 5836 5835 5835 5834 5834
5847 5847 5847 5846 5846 5845 5845 5844 5844 5844 5843 5843 5843 5843 5843 5843 5842 5842 5842 5841 5841 5841 5840 5839 5839 5839 5838 5838 5837 5837 5836 5836 5835 5835 5834 5834 5833 5833 5832 5832 5832 5831 5831
5844 5843 5843 5842 5842 5842 5841 5841 5840 5840 5840 5839 5839 5839 5839 5839 5838 5838 5838 5838 5837 5837 5836 5836 5835 5835 5835 5834 5834 5833 5833 5832 5832 5831 5831 5830 5829 5829 5829 5828 5828 5828 5828
5840 5839 5839 5838 5838 5837 5837 5836 5836 5836 5835 5835 5835 5835 5835 5835 5834 5834 5834 5834 5833 5833 5832 5832 5832 5831 5831 5830 5830 5829 5829 5828 5828 5827 5827 5826 5826 5825 5825 5824 5824 5824 5824
5835 5835 5834 5834 5833 5833 5832 5832 5832 5831 5831 5831 5830 5830 5830 5830 5830 5830 5830 5829 5829 5828 5828 5828 5827 5827 5827 5826 5826 5825 5825 5824 5824 5823 5823 5822 5822 5821 5821 5820 5820 5820 5820
5831 5830 5829 5829 5828 5828 5828 5827 5827 5826 5826 5826 5826 5825 5825 5825 5825 5825 5825 5824 5824 5824 5823 5823 5823 5823 5822 5822 5821 5821 5820 5820 5819 5818 5818 5818 5817 5817 5817 5816 5816 5816 5816
5826 5825 5825 5824 5823 5823 5822 5822 5822 5822 5821 5821 5820 5820 5820 5820 5820 5820 5819 5819 5819 5818 5818 5818 5817 5817 5817 5817 5816 5815 5815 5815 5814 5814 5813 5813 5813 5812 5812 5812 5812 5811 5811
5821 5820 5820 5819 5818 5817 5817 5817 5816 5816 5816 5815 5815 5815 5815 5814 5814 5814 5814 5813 5813 5813 5812 5812 5812 5812 5811 5811 5810 5810 5810 5809 5809 5808 5808 5808 5808 5808 5807 5807 5807 5807 5807
5816 5815 5815 5814 5813 5812 5812 5811 5811 5810 5810 5809 5809 5809 5809 5809 5808 5808 5808 5808 5807 5807 5807 5806 5806 5806 5805 5805 5804 5804 5804 5803 5803 5803 5803 5802 5802 5802 5802 5802 5802 5802 5801
5810 5810 5809 5808 5808 5807 5806 5806 5805 5804 5804 5803 5803 5803 5803 5803 5803 5802 5802 5802 5802 5801 5801 5801 5800 5800 5800 5799 5798 5798 5798 5798 5797 5797 5797 5797 5796 5796 5796 5796 5796 5796 5796
5804 5803 5802 5801 5801 5800 5800 5799 5798 5797 5797 5797 5797 5796 5796 5796 5796 5796 5796 5796 5796 5795 5795 5795 5794 5794 5794 5793 5793 5792 5792 5792 5791 5791 5791 5790 5790 5790 5790 5790 5790 5790 5789
5797 5796 5795 5794 5794 5793 5792 5792 5791 5791 5790 5790 5790 5790 5790 5790 5789 5789 5789 5789 5789 5789 5789 5789 5789 5788 5788 5787 5787 5786 5786 5786 5785 5785 5785 5784 5784 5784 5784 5784 5784 5783 5783
5789 5788 5787 5787 5786 5786 5785 5784 5784 5783 5783 5782 5782 5782 5782 5782 5782 5782 5782 5783 5783 5783 5783 5783 5783 5782 5782 5781 5781 5780 5780 5780 5779 5779 5779 5778 5778 5778 5777 5777 5777 5777 5776
5781 5780 5780 5779 5779 5778 5777 5777 5776 5775 5775 5775 5775 5775 5775 5775 5775 5775 5775 5776 5776 5776 5776 5776 5776 5776 5776 5775 5775 5774 5774 5774 5773 5773 5773 5772 5771 5771 5770 5770 5770 5770 5770
5772 5772 5771 5771 5770 5770 5769 5769 5768 5767 5767 5767 5767 5767 5767 5767 5767 5768 5768 5768 5769 5769 5769 5769 5769 5769 5769 5769 5768 5768 5768 5768 5767 5767 5766 5766 5765 5764 5764 5763 5763 5763 5762
5763 5763 5763 5762 5761 5760 5760 5760 5759 5758 5758 5758 5759 5759 5759 5759 5760 5760 5760 5761 5762 5762 5762 5762 5762 5762 5762 5762 5761 5761 5761 5761 5760 5760 5759 5759 5758 5757 5757 5756 5755 5755 5755
5754 5754 5754 5753 5752 5751 5751 5750 5750 5749 5749 5750 5750 5750 5751 5751 5751 5752 5752 5753 5754 5754 5755 5755 5755 5755 5755 5755 5754 5754 5754 5753 5753 5753 5752 5752 5751 5750 5749 5749 5748 5747 5747
5744 5744 5744 5743 5743 5742 5741 5740 5740 5740 5740 5740 5741 5741 5742 5742 5743 5744 5744 5745 5746 5746 5747 5747 5747 5747 5747 5747 5747 5747 5747 5746 5746 5745 5745 5744 5743 5743 5742 5741 5740 5739 5739
5734 5733 5733 5733 5732 5732 5731 5730 5730 5730 5731 5731 5731 5732 5733 5734 5734 5735 5736 5737 5738 5738 5739 5739 5739 5739 5739 5739 5739 5739 5739 5738 5738 5737 5737 5736 5736 5735 5734 5733 5732 5731 5730
5723 5723 5723 5722 5722 5721 5721 5721 5720 5721 5721 5722 5722 5723 5724 5725 5725 5726 5727 5728 5729 5730 5730 5730 5731 5731 5731 5730 5730 5730 5730 5729 5729 5729 5728 5728 5727 5726 5725 5724 5723 5722 5721